EW4174 Weather Reports


Display with metric or nautical units.
time (UTC)temp
F
wind
direction
speed
MPH
gust
MPH
rain 1hr
in
rain 24hr
in
rain mn
in
humidity
%
barometer
mb
20260504081515 60 156 2.0 5.0 0.00 0.00 0.00 88 1014.3
20260504044538 65 149 4.0 9.0 0.00 0.00 0.00 77 1016.7
20260504043038 65 155 5.0 10.0 0.00 0.00 0.00 77 1016.9
20260504041536 65 360 5.0 9.0 0.00 0.00 0.00 76 1017.0
20260504040042 65 152 5.0 9.0 0.00 0.00 0.00 76 1017.0
20260504034541 65 150 4.0 9.0 0.00 0.00 0.00 75 1017.0
20260504033038 66 148 5.0 8.0 0.00 0.00 0.00 75 1017.0
20260504031542 66 146 4.0 10.0 0.00 0.00 0.00 73 1016.8
20260504030030 67 360 7.0 11.0 0.00 0.00 0.00 72 1016.8
20260504024526 68 150 5.0 10.0 0.00 0.00 0.00 70 1016.9
20260504023022 68 146 7.0 12.0 0.00 0.00 0.00 68 1016.7
20260504021518 69 136 7.0 12.0 0.00 0.00 0.00 67 1016.4
20260504020012 69 360 5.0 13.0 0.00 0.00 0.00 64 1016.4
20260504014507 70 158 7.0 11.0 0.00 0.00 0.00 63 1015.9
20260504013006 70 144 5.0 10.0 0.00 0.00 0.00 61 1015.8
20260504011559 71 148 6.0 13.0 0.00 0.00 0.00 58 1015.7
20260504004550 73 144 4.0 8.0 0.00 0.00 0.00 54 1015.6
20260504003052 74 143 4.0 11.0 0.00 0.00 0.00 51 1015.8
20260504001545 76 134 6.0 10.0 0.00 0.00 0.00 48 1015.8
20260504000057 76 142 7.0 10.0 0.00 0.00 0.00 47 1016.0
20260503234535 76 131 6.0 11.0 0.00 0.00 0.00 47 1016.1
20260503233028 77 126 7.0 11.0 0.00 0.00 0.00 45 1016.0
20260503231523 77 162 5.0 12.0 0.00 0.00 0.00 42 1016.1
20260503230018 78 144 5.0 12.0 0.00 0.00 0.00 45 1016.1
20260503224514 78 138 8.0 10.0 0.00 0.00 0.00 45 1016.3
20260503223010 77 138 6.0 13.0 0.00 0.00 0.00 44 1016.6
20260503221504 78 129 6.0 13.0 0.00 0.00 0.00 41 1017.0
20260503220101 78 148 9.0 11.0 0.00 0.00 0.00 40 1017.2
20260503214555 78 141 6.0 13.0 0.00 0.00 0.00 43 1017.0
20260503213052 78 157 6.0 13.0 0.00 0.00 0.00 41 1017.5
20260503211549 78 150 7.0 15.0 0.00 0.00 0.00 41 1017.9
20260503210042 78 360 8.0 13.0 0.00 0.00 0.00 42 1018.1
20260503204537 78 161 7.0 12.0 0.00 0.00 0.00 41 1018.3
20260503203043 78 125 9.0 15.0 0.00 0.00 0.00 47 1018.7
20260503201533 78 168 5.0 9.0 0.00 0.00 0.00 44 1018.8
20260503200023 77 167 4.0 12.0 0.00 0.00 0.00 49 1019.2
20260503194519 77 132 6.0 19.0 0.00 0.00 0.00 46 1019.3
20260503193018 76 160 6.0 13.0 0.00 0.00 0.00 46 1019.5
20260503191510 77 115 10.0 14.0 0.00 0.00 0.00 51 1019.8
20260503190008 76 143 2.0 14.0 0.00 0.00 0.00 46 1020.0
20260503184501 76 150 8.0 13.0 0.00 0.00 0.00 48 1020.3
20260503183058 76 136 7.0 11.0 0.00 0.00 0.00 49 1020.5
20260503181602 76 137 7.0 11.0 0.00 0.00 0.00 51 1020.8
20260503180048 75 227 6.0 14.0 0.00 0.00 0.00 47 1021.1
20260503174544 75 142 4.0 11.0 0.00 0.00 0.00 54 1021.4
20260503173052 74 181 4.0 12.0 0.00 0.00 0.00 49 1021.6
20260503171538 74 180 5.0 9.0 0.00 0.00 0.00 54 1021.7